User: anonymous   Login
Location: Ostrava
(49.8330°N, 18.2830°E)
Time: 06:54:41
(UTC+02:00)
Language:

Cosmos 2221 - Orbit

View from above orbital plane
View from above orbital plane
View from above satellite
View from above satellite

Ground track
Ground track

The orbit data is extracted from the following two-line orbital elements,

1 22236U 92080A   16242.41209338  .00000298  00000-0  30195-4 0  9990
2 22236  82.5110 334.7500 0015404 245.3577 114.6036 14.87437775283943
Epoch (UTC): 29 August 2016 09:53:24
Eccentricity: 0.0015404
inclination: 82.5110°
perigee height: 595 km
apogee height: 617 km
right ascension of ascending node: 334.7500°
argument of perigee: 245.3577°
revolutions per day: 14.87437775
mean anomaly at epoch: 114.6036°
orbit number at epoch: 28394

The dashed part of the orbit path shows where the satellite is in the earth's shadow,  

DLR